User: anonymous   Login
Location: Vallejo Observatory
(38.1221°N, 122.2109°W)
Time: 01:42:10
(UTC-07:00)
Language:

MOS 1 Rocket - Orbit

View from above orbital plane
View from above orbital plane
View from above satellite
View from above satellite

Ground track
Ground track

The orbit data is extracted from the following two-line orbital elements,

1 17528U 87018B   16270.05062488  .00000168  00000-0  45979-4 0  9999
2 17528  97.4143 251.6658 0153954  45.8560 354.5272 14.50687014561580
Epoch (UTC): 26 September 2016 01:12:53
Eccentricity: 0.0153954
inclination: 97.4143°
perigee height: 614 km
apogee height: 833 km
right ascension of ascending node: 251.6658°
argument of perigee: 45.8560°
revolutions per day: 14.50687014
mean anomaly at epoch: 354.5272°
orbit number at epoch: 56158

The dashed part of the orbit path shows where the satellite is in the earth's shadow,  

DLR